This is the latest recevied weather packets stored in our database for station/object KI6SYE. If no packets are shown the sender has not sent any weather packets the latest 10 day(s).
| Time | Temp. | Humidity | Pressure | Rain* | Wind** | Luminosity | Snow |
|---|---|---|---|---|---|---|---|
| 1788550933 | 24.44° C | 70% | 1013.2 hPa | 0 mm | - | 728 W/m² | - |
| 1788550629 | 25° C | 69% | 1013 hPa | 0 mm | - | 728 W/m² | - |
| 1788550325 | 24.44° C | 70% | 1013.1 hPa | 0 mm | - | 724 W/m² | - |
| 1788550025 | 25° C | 70% | 1013.3 hPa | 0 mm | - | 723 W/m² | - |
| 1788549720 | 23.89° C | 72% | 1013.2 hPa | 0 mm | - | 720 W/m² | - |
| 1788549417 | 23.89° C | 72% | 1013.3 hPa | 0 mm | - | 722 W/m² | - |
| 1788549113 | 23.89° C | 72% | 1013.6 hPa | 0 mm | - | 719 W/m² | - |
| 1788548809 | 23.89° C | 71% | 1013.5 hPa | 0 mm | - | 713 W/m² | - |
| 1788548499 | 23.89° C | 71% | 1013.8 hPa | 0 mm | - | 715 W/m² | - |
| 1788548196 | 23.89° C | 72% | 1013.6 hPa | 0 mm | - | 700 W/m² | - |
| 1788547907 | 23.33° C | 72% | 1013.9 hPa | 0 mm | - | 727 W/m² | - |
| 1788547594 | 23.89° C | 73% | 1013.9 hPa | 0 mm | - | 703 W/m² | - |
| 1788547290 | 23.33° C | 73% | 1013.9 hPa | 0 mm | - | 705 W/m² | - |
| 1788546985 | 23.33° C | 74% | 1013.8 hPa | 0 mm | - | 695 W/m² | - |
| 1788546680 | 23.33° C | 73% | 1013.6 hPa | 0 mm | - | 686 W/m² | - |
| 1788546375 | 23.33° C | 74% | 1013.9 hPa | 0 mm | - | 676 W/m² | - |
| 1788546070 | 22.78° C | 75% | 1013.7 hPa | 0 mm | - | 634 W/m² | - |
| 1788545766 | 23.89° C | 72% | 1013.8 hPa | 0 mm | - | 665 W/m² | - |
| 1788545466 | 23.33° C | 73% | 1013.7 hPa | 0 mm | - | 661 W/m² | - |
| 1788545161 | 23.33° C | 73% | 1013.8 hPa | 0 mm | - | 648 W/m² | - |
| 1788544856 | 22.78° C | 74% | 1013.8 hPa | 0 mm | - | 638 W/m² | - |
| 1788544549 | 23.33° C | 74% | 1014 hPa | 0 mm | - | 654 W/m² | - |
| 1788544248 | 23.33° C | 73% | 1014 hPa | 0 mm | - | 653 W/m² | - |
| 1788543943 | 22.78° C | 75% | 1013.8 hPa | 0 mm | - | 629 W/m² | - |
| 1788543640 | 22.78° C | 75% | 1013.9 hPa | 0 mm | - | 623 W/m² | - |
* Rain latest hour (hover to see other rain measurements)
** Current wind speed in m/s (hover to see current wind gust speed)